Tracking 35237 objects as of 6-Sep-2026
HD Live streaming from Space Station
objects crossing your sky now

CHINASAT 2D

Track CHINASAT 2D now!


NORAD ID: 43920
Int'l Code: 2019-001A
Launch date: January 10, 2019
Source: People's Republic of China (PRC)
Launch site: Xichang Space Center, China (XSC)
Your satellite tracking list
Your tracking list is empty




NASA's NSSDC Master Catalog

Two Line Element Set (TLE):
1 43920U 19001A   26248.97603542 -.00000351  00000-0  00000-0 0  9997
2 43920   0.0521 294.9337 0001563   0.4299 171.0866  1.00268808 54892
Source of the keplerian elements: AFSPC